Location: Aranbee
(34.0885°N, 118.2342°W)
Time: 02:25:40
(UTC+00:00)

deb Explorer IX - Pass Details

Date: 04 December 2020
Orbit: 536 x 1104 km, 38.8° (Epoch: 25 January)

Event Time Altitude Azimuth Distance (km) Brightness Sun altitude
Rises 02:58:02 0° 290° (WNW) 3,438 ? -27.3°
Reaches altitude 10° 03:00:46 10° 289° (WNW) 2,402 ? -27.8°
Enters shadow 03:05:39 65° 270° (W) 799 ? -28.8°
